Regional Weather Roundup
Issued by NWS

Home | Current Version | Previous Version | Graphics & Text | Print | Product List | Glossary On
Versions: 1 2 3 4 5 6 7 8 9 10 11 12 13 14 15 16 17 18 19 20 21 22 23 24 25 26 27
000
ASUS45 KBOU 210707
RWRCO

WEATHER ROUNDUP FOR COLORADO
NATIONAL WEATHER SERVICE DENVER/BOULDER CO
100 AM MDT THU SEP 21 2017

NOTE: "FAIR" INDICATES FEW OR NO CLOUDS BELOW 12000 FEET WITH NO
SIGNIFICANT WEATHER AND/OR OBSTRUCTIONS TO VISIBILITY.

COZ001>005-013-030-031-210800-
...NORTHWEST COLORADO...

CITY           SKY/WX    TMP DP  RH WIND       PRES   REMARKS
CRAIG          FAIR      48  39  71 CALM      29.81F
HAYDEN         FAIR      58  29  33 SE7       29.86F
MEEKER         FAIR      53  30  41 NE9       29.84F
RABBIT EARS PA FAIR      46  25  42 SW16G31   30.09F
STEAMBOAT SPGS FAIR      50  33  52 E5        29.88F
WALDEN         FAIR      37  27  65 SE8       29.97F
$$

COZ006>008-011-210800-
...WEST CENTRAL VALLEYS...

CITY           SKY/WX    TMP DP  RH WIND       PRES   REMARKS
GRAND JUNCTION FAIR      63  30  28 SE10      29.77F
MONTROSE       FAIR      71  25  17 S16G24    29.91F
EAGLE          FAIR      53  28  38 E13       29.91F
RIFLE          FAIR      63  29  27 E7        29.81F
DELTA          FAIR      63  32  31 N7        29.87S
NUCLA          FAIR      68  28  22 S13       29.97R
$$

COZ017>023-064>068-210800-
...SOUTHWEST COLORADO...

CITY           SKY/WX    TMP DP  RH WIND       PRES   REMARKS
DURANGO        FAIR      43  31  62 E6        30.06S
CORTEZ         FAIR      51  32  48 CALM      29.98S
PAGOSA SPRINGS FAIR      45  28  51 CALM      30.14R
TELLURIDE      FAIR      58  25  28 S21G31    30.16F
WOLF CREEK PAS FAIR      39  21  48 S31G43    30.35S
$$

COZ009-010-012-014-032>034-037-058>063-210800-
...CENTRAL COLORADO...

CITY           SKY/WX    TMP DP  RH WIND       PRES   REMARKS
ASPEN          FAIR      53  26  35 SE9G17    29.99F
BUENA VISTA    FAIR      47  23  38 CALM      30.05S
COPPER MTN     FAIR      46  18  31 S17       30.27F
BERTHOUD PASS  FAIR      37  30  75 SW18G25   30.26F
COTTONWOOD PAS FAIR      59  19  21 N3        30.16F
GUNNISON       FAIR      42  30  62 N5        30.07F
KREMMLING      FAIR      50  30  46 E7        29.96S
LEADVILLE      FAIR      48  19  31 S6        30.14F
MONARCH PASS   FAIR      43  19  39 SW30G37   30.40S
SALIDA         FAIR      63  23  22 SW9       30.10F
SUNLIGHT       FAIR      43  23  45 SW13G31   30.18R
WILKERSON PASS FAIR      43  19  39 SW16G30   30.24F
$$

COZ069>075-210800-
...SAN LUIS VALLEY/SANGRE DE CRISTO MOUNTAINS...

CITY           SKY/WX    TMP DP  RH WIND       PRES   REMARKS
ALAMOSA        FAIR      44  26  49 SE7       30.09S
DEL NORTE      FAIR      42  26  53 W13       30.11S
LA VETA PASS   FAIR      52  21  30 S15G44    30.32F
SAGUACHE       FAIR      43  30  61 CALM      30.10S
$$

COZ035-036-038>040-210800-
...NORTHERN COLORADO FRONT RANGE...

CITY           SKY/WX    TMP DP  RH WIND       PRES   REMARKS
DENVER INTL AP FAIR      62  33  33 SW16      29.82F
DMNS CITY PARK   N/A     58  35  42 SE7       29.83S
AURORA         CLEAR     62  33  33 S18       29.84S
FRONT RANGE AP FAIR      61  34  36 SW12      29.84S
ERIE MUNI ARPT FAIR      47  35  63 CALM      29.87S
BOULDER MUN AP FAIR      54  39  58 CALM      29.82S
CENTENNIAL     FAIR      63  30  28 S22       29.85F
BROOMFIELD     FAIR      55  32  41 CALM      29.84F
FORT COLLINS   FAIR      49  36  61 N8        29.82F
LONGMONT       FAIR      48  37  65 CALM      29.83S
$$

COZ041-046-047-076>085-087-088-210800-
...PIKES PEAK/PALMER DIVIDE AND SOUTHERN FOOTHILLS...

CITY           SKY/WX    TMP DP  RH WIND       PRES   REMARKS
COLO. SPRINGS  FAIR      46  35  65 N9        29.95F
A. F. ACADEMY  FAIR      42  31  63 N10       29.96F
SCHRIEVER AFB  FAIR      51  34  52 N6        29.96F
CHEYENNE MTN   FAIR      58  26  28 W7        29.93F
ELLICOTT         N/A    N/A N/A N/A SE5       29.93F
FALCON         FAIR      45  34  64 NW8       29.99F
FORT CARSON    FAIR      49  34  57 NW5       29.92F
LIMON          FAIR      48  35  60 CALM      29.91F
MONUMENT HILL  FAIR      52  32  46 S13G18    29.99S
CANON CITY     CLEAR     54  34  47 W9        29.91S
WALSENBURG     FAIR      57  27  30 SE3       29.96S
TRINIDAD       FAIR      57  35  43 SW12      29.96F
$$

COZ042>045-048>051-090-091-210800-
...NORTHEAST COLORADO...

CITY           SKY/WX    TMP DP  RH WIND       PRES   REMARKS
GREELEY ARPT   FAIR      52  35  52 E7        29.81F
AKRON          FAIR      55  33  43 SE13      29.84F
BURLINGTON     FAIR      56  38  50 S17       29.87F
WRAY           FAIR      54  34  47 E5        29.85F
YUMA           FAIR      46  36  66 SE7       29.84F
STERLING       FAIR      52  34  50 NW5       29.82F
HOLYOKE        NOT AVBL
FORT MORGAN    FAIR      54  32  43 E10       29.84F
$$

COZ086-089-092>099-210800-
...SOUTHEAST COLORADO...

CITY           SKY/WX    TMP DP  RH WIND       PRES   REMARKS
PUEBLO         FAIR      49  33  54 N9        29.87F
LA JUNTA       FAIR      55  40  56 VRB5      29.85F
LAMAR          FAIR      52  39  61 NE10      29.85F
SPRINGFIELD      N/A     50  45  83 SW3       29.93S
$$




USA.gov is the U.S. government's official web portal to all federal, state and local government web resources and services.